K3MJW-2 Weather Reports


time (UTC)temp
C
wind
direction
speed
KPH
gust
KPH
rain 1hr
cm
rain 24hr
cm
rain mn
cm
humidity
%
barometer
mb
20260509213034 17 249 8.0 14.5 0.00 0.00 0.00 2
20260509212533 17 249 6.4 11.3 0.00 0.00 0.00 2
20260509212034 17 243 4.8 11.3 0.00 0.00 0.00 2
20260509211534 17 226 6.4 11.3 0.00 0.00 0.00 2
20260509211033 17 241 8.0 12.9 0.00 0.00 0.00 2
20260509210534 17 259 9.7 12.9 0.00 0.00 0.00 2
20260509210033 17 255 9.7 12.9 0.00 0.00 0.00 2
20260509205533 17 241 8.0 12.9 0.00 0.00 0.00 2
20260509205033 16 256 6.4 12.9 0.00 0.00 0.00 2
20260509204534 16 261 9.7 12.9 0.00 0.00 0.00 2
20260509204034 17 269 9.7 12.9 0.00 0.00 0.00 2
20260509203534 16 269 3.2 12.9 0.00 0.00 0.00 2
20260509203034 16 204 8.0 11.3 0.00 0.00 0.00 2
20260509202533 16 265 9.7 12.9 0.00 0.00 0.00 2
20260509202034 17 261 9.7 14.5 0.00 0.00 0.00 2
20260509201534 18 249 6.4 11.3 0.00 0.00 0.00 2
20260509201034 17 251 6.4 11.3 0.00 0.00 0.00 2
20260509200535 17 271 6.4 11.3 0.00 0.00 0.00 2
20260509200033 16 256 9.7 12.9 0.00 0.00 0.00 2
20260509195533 16 233 8.0 16.1 0.00 0.00 0.00 2
20260509195033 16 278 8.0 14.5 0.00 0.00 0.00 2
20260509194533 16 248 8.0 11.3 0.00 0.00 0.00 2
20260509194033 16 257 9.7 14.5 0.00 0.00 0.00 2
20260509193534 16 247 8.0 11.3 0.00 0.00 0.00 2
20260509193034 16 286 8.0 11.3 0.00 0.00 0.00 2
20260509192534 17 241 4.8 11.3 0.00 0.00 0.00 2
20260509192034 16 242 8.0 12.9 0.00 0.00 0.00 2
20260509191534 16 259 8.0 11.3 0.00 0.00 0.00 2
20260509191033 16 275 8.0 11.3 0.00 0.00 0.00 2
20260509190534 16 241 4.8 11.3 0.00 0.00 0.00 2
20260509190034 16 266 8.0 11.3 0.00 0.00 0.00 2
20260509185534 15 296 8.0 11.3 0.00 0.00 0.00 2
20260509185034 16 256 3.2 14.5 0.00 0.00 0.00 2
20260509184534 16 219 9.7 16.1 0.00 0.00 0.00 2
20260509184034 16 246 8.0 14.5 0.00 0.00 0.00 2
20260509183534 15 273 8.0 16.1 0.00 0.00 0.00 2
20260509183034 15 243 3.2 14.5 0.00 0.00 0.00 2
20260509182534 14 260 9.7 14.5 0.00 0.00 0.00 2
20260509182034 15 222 6.4 14.5 0.00 0.00 0.00 2
20260509181534 15 231 1.6 8.0 0.00 0.00 0.00 2
20260509181034 14 253 0.0 9.7 0.00 0.00 0.00 2
20260509180534 14 245 6.4 12.9 0.00 0.00 0.00 2
20260509180034 13 266 1.6 9.7 0.00 0.00 0.00 2
20260509175533 13 254 4.8 12.9 0.00 0.00 0.00 2
20260509175034 13 260 8.0 11.3 0.00 0.00 0.00 2
20260509174534 13 249 8.0 11.3 0.00 0.00 0.00 2
20260509174034 13 256 8.0 11.3 0.00 0.00 0.00 2
20260509173534 14 226 8.0 11.3 0.00 0.00 0.00 2
20260509173034 14 256 9.7 11.3 0.00 0.00 0.00 2
20260509172533 15 258 9.7 14.5 0.00 0.00 0.00 2
20260509172034 14 258 1.6 14.5 0.00 0.00 0.00 2
20260509171534 14 249 4.8 9.7 0.00 0.00 0.00 2
20260509171034 13 256 9.7 12.9 0.00 0.00 0.00 2
20260509170534 14 250 4.8 11.3 0.00 0.00 0.00 2
20260509170033 15 234 4.8 14.5 0.00 0.00 0.00 2
20260509165534 14 344 1.6 9.7 0.00 0.00 0.00 2
20260509165033 13 244 4.8 11.3 0.00 0.00 0.00 2
20260509164533 13 291 0.0 0.0 0.00 0.00 0.00 2
20260509164033 12 291 1.6 11.3 0.00 0.00 0.00 2
20260509163534 13 250 1.6 11.3 0.00 0.00 0.00 2
20260509163033 13 316 0.0 8.0 0.00 0.00 0.00 2
20260509162534 13 210 0.0 4.8 0.00 0.00 0.00 2
20260509162034 13 225 1.6 9.7 0.00 0.00 0.00 2
20260509161534 12 196 0.0 8.0 0.00 0.00 0.00 2
20260509161034 12 236 0.0 0.0 0.00 0.00 0.00 2
20260509160534 11 236 0.0 8.0 0.00 0.00 0.00 2
20260509160033 11 226 1.6 9.7 0.00 0.00 0.00 2
20260509155533 11 258 0.0 0.0 0.00 0.00 0.00 2
20260509155033 11 258 0.0 0.0 0.00 0.00 0.00 2
20260509154534 11 258 0.0 0.0 0.00 0.00 0.00 2
20260509154034 11 258 0.0 4.8 0.00 0.00 0.00 2
20260509153533 11 258 0.0 0.0 0.00 0.00 0.00 2
20260509153033 11 258 0.0 0.0 0.00 0.00 0.00 2
20260509152533 11 258 0.0 0.0 0.00 0.00 0.00 2
20260509152033 11 258 0.0 3.2 0.00 0.00 0.00 2
20260509151533 11 256 0.0 0.0 0.00 0.00 0.00 2
20260509151033 11 256 0.0 11.3 0.00 0.00 0.00 2
20260509150534 11 208 0.0 0.0 0.00 0.00 0.00 2
20260509150034 11 208 0.0 0.0 0.00 0.00 0.00 2
20260509145534 11 208 0.0 0.0 0.00 0.00 0.00 2
20260509145034 11 208 0.0 0.0 0.00 0.00 0.00 2
20260509144533 11 208 0.0 0.0 0.00 0.00 0.00 2
20260509144033 11 208 1.6 8.0 0.00 0.00 0.00 2
20260509143534 11 172 0.0 0.0 0.00 0.00 0.00 2
20260509143033 10 172 1.6 9.7 0.00 0.00 0.00 2
20260509142533 10 160 3.2 9.7 0.00 0.00 0.00 2
20260509142034 10 248 0.0 0.0 0.00 0.00 0.00 2
20260509141533 10 248 0.0 0.0 0.00 0.00 0.00 2
20260509141033 10 248 1.6 8.0 0.00 0.00 0.00 2
20260509140534 10 217 0.0 8.0 0.00 0.00 0.00 2
20260509140033 10 191 1.6 8.0 0.00 0.00 0.00 2
20260509135534 10 199 0.0 0.0 0.00 0.00 0.00 2
20260509135034 10 199 0.0 3.2 0.00 0.00 0.00 2
20260509134534 10 199 0.0 0.0 0.00 0.00 0.00 2
20260509134034 10 199 0.0 0.0 0.00 0.00 0.00 2
20260509133533 10 199 0.0 4.8 0.00 0.00 0.00 2
20260509133033 10 199 0.0 4.8 0.00 0.00 0.00 2
20260509132533 10 202 0.0 8.0 0.00 0.00 0.00 2
20260509132033 10 206 1.6 11.3 0.00 0.00 0.00 2
20260509131533 10 198 0.0 0.0 0.00 0.00 0.00 2
20260509131033 10 198 0.0 4.8 0.00 0.00 0.00 2
20260509130533 10 233 0.0 8.0 0.00 0.00 0.00 2
20260509130034 10 203 0.0 0.0 0.00 0.00 0.00 2
20260509125533 10 203 0.0 0.0 0.00 0.00 0.00 2
20260509125034 10 203 0.0 0.0 0.00 0.00 0.00 2
20260509124533 10 203 0.0 0.0 0.00 0.00 0.00 2
20260509124033 10 203 0.0 4.8 0.00 0.00 0.00 2
20260509123534 10 203 0.0 0.0 0.00 0.00 0.00 2
20260509123034 10 203 0.0 4.8 0.00 0.00 0.00 2
20260509122533 10 184 0.0 0.0 0.00 0.00 0.00 2
20260509122034 10 184 0.0 0.0 0.00 0.00 0.00 2
20260509121533 10 184 0.0 0.0 0.00 0.00 0.00 2
20260509121033 10 184 0.0 0.0 0.00 0.00 0.00 2
20260509120534 10 184 0.0 0.0 0.00 0.00 0.00 2
20260509120033 10 184 0.0 0.0 0.00 0.00 0.00 2
20260509115534 10 184 0.0 0.0 0.00 0.00 0.00 2
20260509115033 10 184 1.6 9.7 0.00 0.00 0.00 2
20260509114533 10 189 0.0 8.0 0.00 0.00 0.00 2
20260509114033 10 188 0.0 0.0 0.00 0.00 0.00 2
20260509113533 10 188 0.0 0.0 0.00 0.00 0.00 2
20260509113034 10 188 0.0 0.0 0.00 0.00 0.00 2
20260509112533 10 188 0.0 0.0 0.00 0.00 0.00 2
20260509112033 10 188 0.0 0.0 0.00 0.00 0.00 2
20260509111533 10 188 0.0 0.0 0.00 0.00 0.00 2
20260509111033 10 188 0.0 0.0 0.00 0.00 0.00 2
20260509110534 10 188 0.0 0.0 0.00 0.00 0.00 2
20260509110034 10 188 0.0 0.0 0.00 0.00 0.00 2
20260509105533 10 188 0.0 8.0 0.00 0.00 0.00 2
20260509105034 10 195 1.6 8.0 0.00 0.00 0.00 2
20260509104533 10 233 0.0 8.0 0.00 0.00 0.00 2
20260509104033 10 192 1.6 9.7 0.00 0.00 0.00 2
20260509103534 10 219 1.6 9.7 0.00 0.00 0.00 2
20260509103033 10 175 1.6 8.0 0.00 0.00 0.00 2
20260509102534 10 175 0.0 0.0 0.00 0.00 0.00 2
20260509102034 10 175 0.0 0.0 0.00 0.00 0.00 2
20260509101533 9 175 0.0 0.0 0.00 0.00 0.00 2
20260509101033 9 175 0.0 4.8 0.00 0.00 0.00 2
20260509100534 9 274 0.0 0.0 0.00 0.00 0.00 2
20260509100034 9 274 0.0 0.0 0.00 0.00 0.00 2
20260509095533 9 274 0.0 0.0 0.00 0.00 0.00 2
20260509095033 9 274 0.0 0.0 0.00 0.00 0.00 2
20260509094533 9 274 0.0 0.0 0.00 0.00 0.00 2
20260509094033 9 274 0.0 0.0 0.00 0.00 0.00 2
20260509093533 9 274 0.0 0.0 0.00 0.00 0.00 2
20260509093034 9 274 0.0 0.0 0.00 0.00 0.00 2
20260509092533 9 274 0.0 0.0 0.00 0.00 0.00 2
20260509092033 8 274 0.0 0.0 0.00 0.00 0.00 2
20260509091533 8 274 0.0 0.0 0.00 0.00 0.00 2
20260509091033 8 274 0.0 0.0 0.00 0.00 0.00 2
20260509090533 8 274 0.0 0.0 0.00 0.00 0.00 2
20260509090034 8 274 0.0 0.0 0.00 0.00 0.00 2
20260509085533 8 274 0.0 0.0 0.00 0.00 0.00 2
20260509085033 8 274 0.0 0.0 0.00 0.00 0.00 2
20260509084533 8 274 0.0 0.0 0.00 0.00 0.00 2
20260509084033 8 274 0.0 0.0 0.00 0.00 0.00 2
20260509083533 8 274 0.0 0.0 0.00 0.00 0.00 2
20260509083033 8 274 0.0 0.0 0.00 0.00 0.00 2
20260509082533 8 274 0.0 0.0 0.00 0.00 0.00 2
20260509082033 8 274 0.0 0.0 0.00 0.00 0.00 2
20260509081533 8 274 0.0 0.0 0.00 0.00 0.00 2
20260509081033 8 274 0.0 0.0 0.00 0.00 0.00 2
20260509080533 8 274 0.0 0.0 0.00 0.00 0.00 2
20260509080033 8 274 0.0 0.0 0.00 0.00 0.00 2
20260509075533 8 274 0.0 0.0 0.00 0.00 0.00 2
20260509075033 8 274 0.0 0.0 0.00 0.00 0.00 2
20260509074534 8 274 0.0 0.0 0.00 0.00 0.00 2
20260509074033 8 274 0.0 0.0 0.00 0.00 0.00 2
20260509073533 8 274 0.0 0.0 0.00 0.00 0.00 2
20260509073033 8 274 0.0 0.0 0.00 0.00 0.00 2
20260509072533 8 274 0.0 0.0 0.00 0.00 0.00 2
20260509072033 8 274 0.0 0.0 0.00 0.00 0.00 2
20260509071533 8 274 0.0 0.0 0.00 0.00 0.00 2
20260509071033 8 274 0.0 0.0 0.00 0.00 0.00 2
20260509070533 8 274 0.0 0.0 0.00 0.00 0.00 2
20260509070034 8 274 0.0 0.0 0.00 0.00 0.00 2
20260509065533 8 274 0.0 0.0 0.00 0.00 0.00 2
20260509065033 8 274 0.0 0.0 0.00 0.00 0.00 2
20260509064533 8 274 0.0 0.0 0.00 0.00 0.00 2
20260509064033 8 274 0.0 0.0 0.00 0.00 0.00 2
20260509063533 8 274 0.0 0.0 0.00 0.00 0.00 2
20260509063033 8 274 0.0 0.0 0.00 0.00 0.00 2
20260509062533 8 274 0.0 0.0 0.00 0.00 0.00 2
20260509062033 8 274 0.0 0.0 0.00 0.00 0.00 2
20260509061533 8 274 0.0 0.0 0.00 0.00 0.00 2
20260509061033 8 274 0.0 0.0 0.00 0.00 0.00 2
20260509060533 8 274 0.0 0.0 0.00 0.00 0.00 2
20260509060034 8 274 0.0 0.0 0.00 0.00 0.00 2
20260509055533 8 274 0.0 0.0 0.00 0.00 0.00 2
20260509055033 8 274 0.0 0.0 0.00 0.00 0.00 2
20260509054533 8 274 0.0 0.0 0.00 0.00 0.00 2
20260509054033 8 274 0.0 0.0 0.00 0.00 0.00 2
20260509053534 8 274 0.0 0.0 0.00 0.00 0.00 2
20260509053033 8 274 0.0 0.0 0.00 0.00 0.00 2
20260509052533 8 274 0.0 0.0 0.00 0.00 0.00 2
20260509052033 8 274 0.0 0.0 0.00 0.00 0.00 2
20260509051533 8 274 0.0 0.0 0.00 0.00 0.00 2
20260509051033 8 274 0.0 0.0 0.00 0.00 0.00 2
20260509050533 8 274 0.0 0.0 0.00 0.00 0.00 2
20260509050033 8 274 0.0 0.0 0.00 0.00 0.00 2
20260509045533 8 274 0.0 0.0 0.00 0.00 0.00 2
20260509045033 8 274 0.0 0.0 0.00 0.00 0.00 2
20260509044533 8 274 0.0 0.0 0.00 0.00 0.00 2
20260509044033 8 274 0.0 0.0 0.00 0.00 0.00 2
20260509043533 8 274 0.0 0.0 0.00 0.00 0.00 2
20260509043033 8 274 0.0 0.0 0.00 0.00 0.00 2
20260509042533 8 274 0.0 0.0 0.00 0.00 0.00 2
20260509042033 8 274 0.0 0.0 0.00 0.00 0.00 2
20260509041534 8 274 0.0 0.0 0.00 0.00 0.00 2
20260509041033 8 274 0.0 0.0 0.00 0.00 0.00 2
20260509040534 8 274 0.0 0.0 0.00 0.00 0.00 2
20260509040033 9 274 0.0 0.0 0.00 0.00 0.00 2
20260509035533 9 274 0.0 0.0 0.00 0.00 0.00 2
20260509035034 9 274 0.0 0.0 0.00 0.00 0.00 2
20260509034534 9 274 0.0 0.0 0.00 0.00 0.00 2
20260509034034 9 274 0.0 0.0 0.00 0.00 0.00 2
20260509033533 9 274 0.0 0.0 0.00 0.00 0.00 2
20260509033033 9 274 0.0 0.0 0.00 0.00 0.00 2
20260509032533 9 274 0.0 0.0 0.00 0.00 0.00 2
20260509032033 9 274 0.0 0.0 0.00 0.00 0.00 2
20260509031534 9 274 0.0 0.0 0.00 0.00 0.00 2
20260509031034 9 274 0.0 0.0 0.00 0.00 0.00 2
20260509030533 9 274 0.0 0.0 0.00 0.00 0.00 2
20260509030033 9 274 0.0 0.0 0.00 0.00 0.00 2
20260509025533 9 274 0.0 0.0 0.00 0.00 0.00 2
20260509025033 9 274 0.0 0.0 0.00 0.00 0.00 2
20260509024534 9 274 0.0 0.0 0.00 0.00 0.00 2
20260509024034 9 274 0.0 0.0 0.00 0.00 0.00 2
20260509023533 9 274 0.0 0.0 0.00 0.00 0.00 2
20260509023033 9 274 0.0 0.0 0.00 0.00 0.00 2
20260509022534 10 274 0.0 0.0 0.00 0.00 0.00 2
20260509022034 10 274 0.0 0.0 0.00 0.00 0.00 2
20260509021533 10 274 0.0 0.0 0.00 0.00 0.00 2
20260509021033 10 276 1.6 8.0 0.00 0.00 0.00 2
20260509020533 10 0 0.0 0.0 0.00 0.00 0.00 2
20260509020033 10 0 0.0 0.0 0.00 0.00 0.00 2
20260509015534 10 0 0.0 0.0 0.00 0.00 0.00 2
20260509015034 10 0 0.0 0.0 0.00 0.00 0.00 2
20260509014533 10 0 0.0 0.0 0.00 0.00 0.00 2
20260509014034 10 0 0.0 0.0 0.00 0.00 0.00 2
20260509013533 10 0 0.0 0.0 0.00 0.00 0.00 2
20260509013033 10 0 0.0 0.0 0.00 0.00 0.00 2
20260509012533 10 0 0.0 0.0 0.00 0.00 0.00 2
20260509012033 10 0 0.0 0.0 0.00 0.00 0.00 2
20260509011533 10 0 0.0 0.0 0.00 0.00 0.00 2
20260509011033 10 0 0.0 0.0 0.00 0.00 0.00 2
20260509010533 10 0 0.0 0.0 0.00 0.00 0.00 2
20260509010033 10 0 0.0 0.0 0.00 0.00 0.00 2
20260509005533 10 0 0.0 0.0 0.00 0.00 0.00 2
20260509005033 10 0 0.0 0.0 0.00 0.00 0.00 2
20260509004533 10 0 0.0 0.0 0.00 0.00 0.00 2
20260509004033 10 0 0.0 0.0 0.00 0.00 0.00 2
20260509003533 10 0 0.0 0.0 0.00 0.00 0.00 2
20260509003033 10 0 0.0 0.0 0.00 0.00 0.00 2
20260509002533 10 0 0.0 0.0 0.00 0.00 0.00 2
20260509002033 10 0 0.0 0.0 0.00 0.00 0.00 2
20260509001534 11 0 0.0 0.0 0.00 0.00 0.00 2
20260509001033 11 0 0.0 0.0 0.00 0.00 0.00 2
20260509000533 11 0 0.0 0.0 0.00 0.00 0.00 2
20260509000033 11 0 0.0 0.0 0.00 0.00 0.00 2
20260508235533 11 0 0.0 0.0 0.00 0.00 0.00 2
20260508235033 11 0 0.0 0.0 0.00 0.00 0.00 2
20260508234533 11 0 0.0 0.0 0.00 0.00 0.00 2
20260508234033 11 0 0.0 0.0 0.00 0.00 0.00 2
20260508233534 11 0 0.0 0.0 0.00 0.00 0.00 2
20260508233033 11 0 0.0 0.0 0.00 0.00 0.00 2
20260508232533 11 0 0.0 0.0 0.00 0.00 0.00 2
20260508232033 11 0 0.0 0.0 0.00 0.00 0.00 2
20260508231533 11 0 0.0 0.0 0.00 0.00 0.00 2
20260508231033 11 0 0.0 0.0 0.00 0.00 0.00 2
20260508230533 11 0 0.0 0.0 0.00 0.00 0.00 2
20260508230034 11 0 0.0 0.0 0.00 0.00 0.00 2
20260508225533 11 0 0.0 0.0 0.00 0.00 0.00 2
20260508225033 11 0 0.0 0.0 0.00 0.00 0.00 2
20260508224533 12 0 0.0 0.0 0.00 0.00 0.00 2
20260508224033 12 0 0.0 0.0 0.00 0.00 0.00 2
20260508223533 12 0 0.0 0.0 0.00 0.00 0.00 2
20260508223033 12 0 0.0 0.0 0.00 0.00 0.00 2
20260508222533 12 0 0.0 0.0 0.00 0.00 0.00 2
20260508222033 12 0 0.0 0.0 0.00 0.00 0.00 2
20260508221533 12 0 0.0 0.0 0.00 0.00 0.00 2
20260508221034 12 0 0.0 0.0 0.00 0.00 0.00 2
20260508220533 12 0 0.0 0.0 0.00 0.00 0.00 2
20260508220033 12 0 0.0 0.0 0.00 0.00 0.00 2
20260508215533 12 0 0.0 0.0 0.00 0.00 0.00 2
20260508215033 12 0 0.0 0.0 0.00 0.00 0.00 2
20260508214533 12 0 0.0 0.0 0.00 0.00 0.00 2
20260508214033 12 0 0.0 0.0 0.00 0.00 0.00 2
20260508213533 12 0 0.0 0.0 0.00 0.00 0.00 2